Regional Weather Roundup
Issued by NWS Newport/Morehead, NC

Current Version | Previous Version | Graphics & Text | Print | Product List | Glossary Off
Versions: 1 2 3 4 5 6 7 8 9 10 11 12 13 14 15 16 17 18 19 20 21 22 23 24 25 26 27 28 29 30 31 32 33 34 35 36 37 38 39 40 41 42 43 44 45 46 47 48 49 50

000
ASUS42 KMHX 020812
RWRMHX
WEATHER ROUNDUP FOR EASTERN NORTH CAROLINA
NATIONAL WEATHER SERVICE NEWPORT/MOREHEAD CITY NC
300 AM EST MON MAR 02 2015

NOTE: "FAIR" INDICATES FEW OR NO CLOUDS BELOW 12,000 FEET
WITH NO SIGNIFICANT WEATHER AND/OR OBSTRUCTIONS TO VISIBILITY

NCZ015>017-031-032-045>047-102-103-020900-
NORTH COAST

CITY           SKY/WX    TMP DP  RH WIND       PRES   REMARKS
EDENTON        FOG       37  36  98 SW6       30.21F VSB 1/2
ELIZABETH CITY FOG       37  36  96 SW8       30.19F VSB 1
KITTY HAWK     FOG       38  38 100 W7        30.18F VSB 1/4
MANTEO         FOG       39  39 100 W6        30.20F VSB 1/2

$$

NCZ045>047-081-094-103-104-020900-
CENTRAL COAST

CITY           SKY/WX    TMP DP  RH WIND       PRES   REMARKS
FRISCO         FOG       43  43 100 W8        30.22S VSB 1
SWANQUARTER      N/A     41 N/A N/A W7        30.18F

$$

NCZ095-097-098-100-101-020900-
SOUTHERN COAST

CITY           SKY/WX    TMP DP  RH WIND       PRES   REMARKS
BEAUFORT       FOG       44  44 100 SW7       30.23F VSB 1/2
CEDAR ISLAND     N/A     45 N/A N/A SW9       30.24F
JACKSONVILLE   CLOUDY    44  43  96 W6        30.24F FOG
PINEY ISLAND     N/A    N/A N/A N/A MISG      30.22F
WILMINGTON     CLOUDY    44  43  96 SW5       30.25F FOG


$$

NCZ011>013-027>030-043-044-078>080-089-090>093-098-020900-
COASTAL PLAIN

CITY           SKY/WX    TMP DP  RH WIND       PRES   REMARKS
AHOSKIE        FOG       33  33  98 CALM      30.19F VSB 1
CLINTON        FOG       38  38 100 SW6       30.26F VSB 1/2
ELIZABETHTOWN  FOG       40  40 100 W3        30.26F VSB 3/4
GOLDSBORO      FOG       39  39 100 SW7       30.21F VSB 1/2
GREENVILLE     FOG       37  37 100 CALM      30.24F VSB 1/2
HAVELOCK       CLOUDY    45  44  97 W8        30.24F FOG
KENANSVILLE    CLOUDY    39  39 100 W5        30.26F FOG
KINSTON        CLOUDY    39  39  99 SW5       30.24F FOG
NEW BERN       FOG       44  42  93 W5        30.24F VSB 3/4
RICHLANDS      CLOUDY    43  37  81 W6        30.25F
ROCKY MOUNT    CLOUDY    37  37 100 SW6       30.21F FOG
WASHINGTON     FOG       38  37  98 W6        30.23F VSB 3/4
WHITEVILLE     FOG       41  40  97 CALM      30.26F VSB 1

$$

AMZ130-135-150-152-154-156-158-170-250-252-270-ANZ085-086-088-633-658-670-020900-
MARINE OBSERVATIONS

STATION/POSITION TIME  TEMP    WIND        PRES    WAVE   SWELL
                       AIR SEA DIR/SP/G            HT/PER HT/PER
                 (UTC) (F)     (DEG/KT/KT) (MB)    (FT/S) (FT/S)
CHESAPEAKE LIGHT 0700   35     240/ 12/ 12 1022.6
64 E VA BEACH    0750   43 53  260/ 16/ 17 1021.1    4/ 6   3/ 7
DUCK             0700   38 34  240/ 12/ 15 1022.1
2 E DUCK         0711                        N/A     4/ 6
10 NE DUCK       0722      37                N/A     4/ 7
OREGON INLET     0700   42 41  250/  5/  6 1023.3
HATTERAS CG      0700   42 41  210/  7/ 10 1023.6
CAPE LOOKOUT     0800   47     250/  7/  9 1023.3
BEAUFORT LAB     0700   44 43  200/  6/  7 1023.4
27 SE WRIGHTSVLE NOT AVBL
5 SE WRIGHTSVLE  NOT AVBL
225 S CAPE HAT   0750   71 72  210/ 16/ 17 1026.0    7/ 9   5/ 9
41 SE CHARLESTON 0750   55 68  330/  6/ 10 1026.2    5/ 8   5/ 8

$$


USA.gov is the U.S. government's official web portal to all federal, state and local government web resources and services.